F4FAA-12 Weather Reports


time (UTC)temp
C
wind
direction
speed
KPH
gust
KPH
rain 1hr
cm
rain 24hr
cm
rain mn
cm
humidity
%
barometer
mb
20260506175144 14 293 0.0 4.8 0.03 0.28 0.33 60 1014.2
20260506174658 15 296 1.6 3.2 0.03 0.28 0.33 60 1014.1
20260506174136 15 296 0.0 4.8 0.03 0.28 0.33 60 1014.0
20260506173701 15 296 0.0 4.8 0.05 0.28 0.33 60 1014.1
20260506173234 15 288 1.6 3.2 0.05 0.28 0.30 60 1014.1
20260506172732 15 186 0.0 3.2 0.05 0.28 0.30 59 1014.1
20260506172222 15 171 0.0 3.2 0.10 0.28 0.30 59 1014.0
20260506172107 15 171 0.0 3.2 0.10 0.28 0.30 58 1013.9
20260506171233 16 171 0.0 1.6 0.10 0.28 0.28 58 1013.8
20260506170733 16 171 0.0 3.2 0.13 0.28 0.28 57 1013.8
20260506170139 16 169 0.0 3.2 0.13 0.28 0.28 56 1013.8
20260506165745 16 168 0.0 3.2 0.00 0.15 0.23 56 1013.8
20260506165713 16 166 0.0 3.2 0.03 0.15 0.23 54 1013.8
20260506164716 17 135 0.0 3.2 0.03 0.15 0.23 53 1013.9
20260506164300 17 131 0.0 8.0 0.03 0.15 0.23 52 1013.9
20260506163822 17 131 1.6 8.0 0.03 0.15 0.20 49 1013.8
20260506163159 17 134 0.0 0.0 0.03 0.15 0.20 46 1013.8
20260506162700 18 134 0.0 0.0 0.03 0.15 0.18 45 1013.7
20260506162211 18 134 0.0 0.0 0.03 0.15 0.18 43 1013.6
20260506162202 18 134 0.0 0.0 0.03 0.15 0.18 45 1013.7
20260506161204 19 134 0.0 1.6 0.03 0.15 0.18 41 1013.7
20260506160704 20 137 0.0 8.0 0.00 0.13 0.15 39 1013.6
20260506160654 19 134 0.0 6.4 0.03 0.15 0.15 41 1013.7
20260506160153 20 134 4.8 8.0 0.03 0.15 0.15 38 1013.7
20260506155616 20 275 3.2 9.7 0.00 0.13 0.13 37 1013.7
20260506154741 20 286 6.4 9.7 0.00 0.13 0.13 39 1013.8
20260506154647 20 292 1.6 9.7 0.00 0.13 0.13 40 1013.6
20260506154237 20 99 1.6 9.7 0.00 0.13 0.13 39 1013.8
20260506153714 20 130 1.6 6.4 0.00 0.13 0.13 38 1013.8
20260506152645 19 345 1.6 8.0 0.00 0.13 0.13 42 1013.9
20260506152220 18 23 3.2 11.3 0.00 0.13 0.13 40 1013.9
20260506152138 19 96 3.2 11.3 0.00 0.13 0.13 39 1013.9
20260506151153 19 0 4.8 8.0 0.00 0.13 0.13 40 1013.9
20260506150641 19 344 1.6 6.4 0.00 0.13 0.13 43 1013.9
20260506150232 19 235 3.2 8.0 0.00 0.13 0.13 40 1014.0
20260506145642 20 176 3.2 6.4 0.00 0.13 0.13 39 1014.1
20260506145610 20 224 1.6 8.0 0.00 0.13 0.13 39 1014.1
20260506144758 20 219 1.6 8.0 0.00 0.13 0.13 41 1014.1
20260506144224 20 147 3.2 8.0 0.00 0.13 0.13 40 1014.1
20260506143633 20 127 4.8 8.0 0.00 0.13 0.13 40 1014.1
20260506143154 20 144 1.6 11.3 0.00 0.13 0.13 39 1014.2
20260506143126 20 149 0.0 8.0 0.00 0.13 0.13 41 1014.1
20260506142145 20 135 3.2 11.3 0.00 0.13 0.13 38 1014.0
20260506141627 20 125 6.4 8.0 0.00 0.13 0.13 41 1014.1
20260506141310 20 130 3.2 8.0 0.00 0.13 0.13 43 1014.2
20260506140638 19 134 4.8 8.0 0.00 0.13 0.13 42 1014.2
20260506140226 18 85 3.2 8.0 0.00 0.13 0.13 44 1014.2
20260506140122 18 62 1.6 8.0 0.00 0.13 0.13 47 1014.2
20260506135243 17 90 1.6 9.7 0.00 0.13 0.13 48 1014.3
20260506134800 17 10 3.2 9.7 0.00 0.13 0.13 48 1014.4
20260506134144 17 44 3.2 9.7 0.00 0.13 0.13 49 1014.4
20260506133758 17 63 4.8 17.7 0.00 0.13 0.13 51 1014.5
20260506133730 17 75 3.2 17.7 0.00 0.13 0.13 52 1014.4
20260506132751 17 28 9.7 14.5 0.03 0.13 0.13 53 1014.5
20260506132733 17 113 3.2 19.3 0.03 0.13 0.13 58 1014.5
20260506131727 16 114 11.3 19.3 0.03 0.13 0.13 56 1014.6
20260506131235 16 0 6.4 11.3 0.03 0.13 0.13 61 1014.6
20260506130634 16 80 4.8 11.3 0.03 0.13 0.13 60 1014.7
20260506130258 16 31 6.4 11.3 0.03 0.13 0.13 62 1014.7
20260506125735 15 341 1.6 14.5 0.00 0.10 0.13 63 1014.7
20260506125147 15 66 9.7 11.3 0.03 0.10 0.13 66 1014.7
20260506124635 14 104 3.2 8.0 0.03 0.10 0.13 66 1014.7
20260506124254 13 0 1.6 6.4 0.03 0.10 0.13 68 1014.7
20260506123708 13 285 1.6 6.4 0.03 0.10 0.13 68 1014.7
20260506123234 13 317 0.0 8.0 0.03 0.10 0.13 69 1014.8
20260506122706 12 331 3.2 8.0 0.03 0.10 0.10 70 1014.8
20260506122241 12 338 0.0 6.4 0.03 0.10 0.10 68 1014.8
20260506122116 12 278 3.2 16.1 0.03 0.10 0.10 68 1015.1
20260506121209 13 231 4.8 17.7 0.03 0.10 0.10 64 1015.2
20260506120745 13 243 11.3 17.7 0.03 0.10 0.10 62 1015.2
20260506120200 14 237 11.3 22.5 0.03 0.10 0.10 60 1014.8
20260506115639 15 266 12.9 22.5 0.00 0.05 0.10 58 1014.8
20260506115231 16 265 3.2 9.7 0.00 0.05 0.05 55 1014.7
20260506115109 16 244 9.7 8.0 0.00 0.00 0.00 55 1014.7
20260506114148 16 209 4.8 9.7 0.00 0.00 0.00 54 1014.7
20260506113548 16 279 4.8 8.0 0.00 0.00 0.00 56 1014.6
20260506113200 16 298 4.8 8.0 0.03 0.05 0.05 55 1014.7
20260506113116 16 278 1.6 8.0 0.03 0.05 0.05 58 1014.8
20260506112228 16 221 4.8 11.3 0.03 0.05 0.05 58 1014.7
20260506111725 16 235 6.4 11.3 0.03 0.05 0.05 55 1014.6
20260506111210 17 235 4.8 11.3 0.03 0.05 0.05 55 1014.6
20260506110721 17 231 4.8 8.0 0.03 0.05 0.05 56 1014.5
20260506110138 17 137 1.6 14.5 0.03 0.05 0.05 54 1014.5
20260506105758 17 133 8.0 14.5 0.00 0.03 0.05 53 1014.6
20260506105252 18 110 8.0 9.7 0.00 0.03 0.05 52 1014.5
20260506105223 18 128 4.8 9.7 0.00 0.03 0.05 54 1014.6
20260506104255 17 85 4.8 9.7 0.00 0.03 0.05 59 1014.6
20260506103645 16 138 3.2 6.4 0.00 0.03 0.03 60 1014.6
20260506103205 16 195 0.0 8.0 0.00 0.03 0.03 56 1014.7
20260506102752 16 148 3.2 9.7 0.00 0.03 0.03 57 1014.8
20260506102734 16 135 8.0 8.0 0.00 0.03 0.03 58 1014.9
20260506101705 16 114 3.2 9.7 0.00 0.03 0.03 59 1014.9
20260506101224 16 99 4.8 8.0 0.00 0.03 0.03 61 1014.9
20260506101213 15 135 1.6 6.4 0.00 0.03 0.03 63 1014.9
20260506100607 15 199 0.0 0.0 0.00 0.03 0.03 65 1015.1
20260506100336 15 144 1.6 6.4 0.00 0.03 0.03 62 1015.2
20260506095209 14 199 0.0 0.0 0.00 0.03 0.03 65 1015.1
20260506094751 14 199 0.0 0.0 0.00 0.03 0.03 65 1015.1
20260506094144 13 199 0.0 3.2 0.00 0.03 0.03 65 1015.1
20260506093700 13 199 0.0 3.2 0.00 0.03 0.03 66 1015.2
20260506093130 14 121 0.0 4.8 0.00 0.03 0.03 67 1015.2
20260506092739 14 118 0.0 6.4 0.00 0.03 0.03 67 1015.1
20260506092206 14 118 0.0 6.4 0.00 0.03 0.03 69 1014.9
20260506092121 13 117 3.2 6.4 0.00 0.03 0.03 71 1014.9
20260506091152 13 159 3.2 4.8 0.03 0.03 0.03 72 1014.9
20260506090707 13 164 0.0 3.2 0.03 0.03 0.03 72 1014.8
20260506090246 13 164 0.0 3.2 0.03 0.03 0.03 73 1014.8
20260506085657 13 155 0.0 3.2 0.00 0.00 0.03 74 1014.6
20260506085147 13 155 0.0 0.0 0.00 0.00 0.00 77 1014.7
20260506084631 12 155 0.0 0.0 0.00 0.00 0.03 78 1014.7
20260506084142 12 155 0.0 1.6 0.00 0.00 0.03 77 1014.7
20260506083653 12 155 0.0 3.2 0.00 0.00 0.03 77 1014.7
20260506083031 12 155 0.0 3.2 0.00 0.00 0.00 79 1014.6
20260506082733 12 155 0.0 1.6 0.00 0.00 0.03 79 1014.6
20260506082250 12 154 0.0 1.6 0.00 0.00 0.03 80 1014.6
20260506081633 12 154 0.0 1.6 0.00 0.00 0.00 80 1014.6
20260506081226 12 154 0.0 1.6 0.00 0.00 0.00 80 1014.6
20260506081125 12 154 0.0 4.8 0.00 0.00 0.00 80 1014.4
20260506080233 12 154 0.0 4.8 0.00 0.00 0.00 80 1014.5
20260506073211 11 155 0.0 0.0 0.00 0.00 0.00 80 1014.2
20260506072628 11 155 0.0 0.0 0.00 0.00 0.00 80 1014.1
20260506072305 11 155 0.0 0.0 0.00 0.00 0.00 80 1014.1
20260506072151 11 155 0.0 0.0 0.00 0.00 0.00 80 1014.1
20260506071144 11 155 0.0 1.6 0.00 0.00 0.00 80 1014.0
20260506070640 11 155 0.0 1.6 0.00 0.00 0.00 80 1013.9
20260506070258 11 155 0.0 1.6 0.00 0.00 0.00 80 1013.9
20260506061627 11 157 0.0 1.6 0.00 0.00 0.00 80 1013.5
20260506061228 11 0 0.0 1.6 0.00 0.00 0.00 80 1013.4
20260506060658 11 0 0.0 4.8 0.00 0.00 0.00 80 1013.3
20260506060142 11 0 0.0 6.4 0.00 0.00 0.00 80 1013.3
20260506051228 10 151 0.0 0.0 0.00 0.00 0.00 79 1012.8
20260506050744 10 151 0.0 0.0 0.00 0.00 0.00 79 1012.7
20260506050220 10 151 0.0 0.0 0.00 0.00 0.00 79 1012.6
20260506044252 10 151 0.0 0.0 0.00 0.00 0.00 79 1012.4
20260506044210 10 151 0.0 0.0 0.00 0.00 0.00 79 1012.4
20260506043657 10 151 0.0 0.0 0.00 0.00 0.00 79 1012.4
20260506042638 10 151 0.0 1.6 0.00 0.00 0.00 79 1012.2
20260506042305 10 151 0.0 3.2 0.00 0.00 0.00 79 1012.3
20260506042121 10 151 1.6 1.6 0.00 0.00 0.00 79 1012.3
20260506041128 10 151 0.0 1.6 0.00 0.00 0.00 79 1012.3
20260506040738 11 151 0.0 3.2 0.00 0.00 0.00 79 1012.3
20260506040315 11 151 0.0 6.4 0.00 0.00 0.00 79 1012.3
20260506035657 11 151 0.0 6.4 0.00 0.00 0.00 79 1012.3
20260506035242 11 157 0.0 6.4 0.00 0.00 0.00 79 1012.3
20260506034722 11 116 1.6 4.8 0.00 0.00 0.00 79 1012.4
20260506034253 11 116 0.0 4.8 0.00 0.00 0.00 79 1012.3
20260506033711 11 89 0.0 1.6 0.00 0.00 0.00 79 1012.2
20260506033656 11 175 1.6 3.2 0.00 0.00 0.00 79 1012.3
20260506032640 11 76 0.0 0.0 0.00 0.00 0.00 79 1012.0
20260506032129 11 306 0.0 0.0 0.00 0.00 0.00 79 1012.2
20260506031741 11 306 0.0 0.0 0.00 0.00 0.00 79 1012.1
20260506031612 11 306 0.0 1.6 0.00 0.00 0.00 79 1012.0
20260506030732 10 1 0.0 6.4 0.00 0.00 0.00 78 1011.9
20260506030723 11 306 0.0 3.2 0.00 0.00 0.00 79 1012.0
20260506030137 10 307 0.0 6.4 0.00 0.00 0.00 78 1012.0
20260506025152 10 290 0.0 1.6 0.00 0.00 0.00 78 1011.8
20260506024655 11 290 0.0 1.6 0.00 0.00 0.00 78 1011.9
20260506024144 11 290 0.0 3.2 0.00 0.00 0.00 78 1011.8
20260506023742 11 290 0.0 3.2 0.00 0.00 0.00 78 1011.7
20260506023308 11 355 0.0 0.0 0.00 0.00 0.00 78 1011.7
20260505212918 12 52 0.0 1.6 0.00 0.23 0.23 68 1014.8
20260505211756 12 54 0.0 1.6 0.00 0.23 0.23 67 1014.9
20260505211134 12 54 0.0 1.6 0.00 0.23 0.23 67 1015.1
20260505210714 12 54 0.0 0.0 0.00 0.23 0.23 66 1015.3
20260505210628 12 54 0.0 0.0 0.00 0.23 0.23 67 1015.2
20260505210437 12 54 0.0 0.0 0.00 0.23 0.23 66 1015.2
20260505205718 12 54 0.0 11.3 0.00 0.23 0.23 66 1015.3
20260505205152 12 54 0.0 11.3 0.00 0.23 0.23 66 1015.3
20260505204739 12 54 4.8 1.6 0.00 0.23 0.23 66 1015.2
20260505203734 12 85 0.0 3.2 0.00 0.23 0.23 67 1015.3
20260505203254 12 85 0.0 6.4 0.00 0.23 0.23 66 1015.2
20260505202743 13 68 0.0 6.4 0.00 0.23 0.23 66 1015.1
20260505202653 13 55 1.6 4.8 0.00 0.23 0.23 66 1015.2
20260505201734 13 61 0.0 4.8 0.00 0.23 0.23 67 1015.3
20260505201217 13 131 0.0 3.2 0.00 0.23 0.23 67 1015.2
20260505201137 13 62 0.0 4.8 0.00 0.23 0.23 67 1015.3
20260505200142 13 131 0.0 0.0 0.03 0.23 0.23 66 1015.3
20260505195700 13 131 0.0 0.0 0.00 0.00 0.00 66 1015.3
20260505195218 13 131 0.0 3.2 0.00 0.20 0.23 66 1015.1
20260505195133 13 131 0.0 0.0 0.00 0.20 0.23 66 1015.1
20260505194147 13 131 0.0 3.2 0.00 0.20 0.23 66 1014.9
20260505193748 13 131 0.0 0.0 0.00 0.20 0.23 66 1014.9
20260505193230 13 131 0.0 0.0 0.00 0.20 0.23 66 1015.1
20260505192649 13 131 0.0 0.0 0.00 0.20 0.23 66 1014.9
20260505192156 13 131 0.0 0.0 0.00 0.20 0.23 66 1014.8
20260505191656 13 131 0.0 0.0 0.00 0.20 0.23 66 1014.8
20260505191231 13 131 0.0 0.0 0.00 0.20 0.23 65 1014.7
20260505191202 13 131 0.0 0.0 0.00 0.20 0.20 65 1014.7
20260505190931 13 131 0.0 0.0 0.00 0.20 0.23 65 1014.7
20260505185719 13 131 0.0 0.0 0.00 0.20 0.20 65 1014.8
20260505185250 13 131 0.0 0.0 0.00 0.20 0.20 64 1014.7
20260505184652 13 131 0.0 0.0 0.00 0.20 0.20 65 1014.6
20260505184217 13 131 0.0 1.6 0.00 0.20 0.20 65 1014.6
20260505183730 13 131 0.0 1.6 0.00 0.20 0.20 65 1014.6
20260505183223 13 131 0.0 0.0 0.00 0.20 0.20 64 1014.4
20260505182737 13 131 0.0 0.0 0.00 0.20 0.20 64 1014.4
20260505182602 13 131 0.0 0.0 0.00 0.20 0.20 64 1014.4
20260505181722 13 131 0.0 0.0 0.00 0.20 0.20 63 1014.2
20260505181201 13 131 0.0 1.6 0.00 0.20 0.20 63 1014.1
20260505180739 13 131 0.0 1.6 0.00 0.20 0.20 63 1014.1
20260505180140 13 131 0.0 0.0 0.00 0.20 0.20 63 1014.0
20260505175724 13 131 0.0 0.0 0.00 0.20 0.20 63 1013.8